TEVEL2-7

Last updated on Sat Aug 15 2026 00:03:15 GMT+0000 (Coordinated Universal Time)

1 63238U 25052AE 26226.50801365 .00009412 00000+0 29564-3 0 9996 2 63238 97.3855 121.6552 0003983 309.0124 51.0764 15.33210861 78957
UTC large
Height (km)
Speed (km/s)
/
Latitude / Longitude
Inclination (degrees)
Orbital Period (minutes)
Azimuth
Elevation
Range (km)
Doppler Factor

Next 0 passes for location: London (51.5072 / 0.1276)

No passes found over London.
TEVEL2-7